Regional Weather Roundup
Issued by NWS

Home | Current Version | Previous Version | Graphics & Text | Print | Product List | Glossary On
Versions: 1 2 3 4 5 6 7 8 9 10 11 12 13 14 15 16 17 18 19 20 21 22 23 24 25 26 27 28 29 30 31 32 33 34 35 36 37 38 39 40 41 42 43 44 45 46 47 48 49 50
000
ASUS45 KABQ 032010
RWRNM
NEW MEXICO REGIONAL WEATHER ROUNDUP
NATIONAL WEATHER SERVICE ALBUQUERQUE NM
100 PM MST SAT DEC 03 2016

NOTE: "FAIR" MEANS FEW OR NO CLOUDS BELOW 12,000 FEET AGL WITH NO
       SIGNIFICANT WEATHER OR OBSTRUCTIONS TO VISION.

      THIS PRODUCT IS RELEASED AS TWO VERSIONS.  ONE VERSION NEAR
      THE TOP OF THE HOUR CONTAINING PRELIMINARY DATA FROM ALBUQUERQUE
      AND OTHER STATIONS.  A FINAL VERSION WITH ADDITIONAL DATA IS
      ISSUED ABOUT 10 MINUTES AFTER THE HOUR.

NMZ501-503-504-510>518-032100-
NORTHWEST PLATEAU/NORTHCENTRAL MOUNTAINS

CITY           SKY/WX    TMP DP  RH WIND       PRES   REMARKS
FARMINGTON     FAIR      36  26  67 W8        30.09F WCI  30
LOS ALAMOS     FAIR      37  25  61 NE3       30.02F
SANTA FE       FAIR      45  24  43 N12       29.99F
TAOS           FAIR      36  19  51 N8        30.03F WCI  29
ANGEL FIRE     FAIR      35  15  43 W12       29.98F WCI  27

$$
NMZ402-403-502-505>509-032100-
WESTCENTRAL MOUNTAINS/SOUTHWEST MOUNTAINS

CITY           SKY/WX    TMP DP  RH WIND       PRES   REMARKS
GALLUP         FAIR      38  26  62 E6        30.08F WCI  33
GRANTS         FAIR      38  27  64 NW16G22   30.07F WCI  29

$$
NMZ407-409-411-412-032100-
SOUTHERN DESERTS

CITY           SKY/WX    TMP DP  RH WIND       PRES   REMARKS
DEMING         LGT RAIN  45  36  70 E15       29.96F
LAS CRUCES     DRIZZLE   46  38  72 N9        29.95F
HOLLOMAN AFB   PTSUNNY   44  38  79 S7        30.00F
T OR C         PTSUNNY   48  28  46 NE18      29.97F

$$
NMZ519>523-032100-
CENTRAL VALLEYS/CENTRAL HIGHLANDS

CITY           SKY/WX    TMP DP  RH WIND       PRES   REMARKS
ALBUQUERQUE    FAIR      45  27  49 N5        30.02F
DOUBLE EAGLE   MOSUNNY   43  27  52 VRB6      30.02F
MORIARTY ARPT  CLOUDY    42  26  53 NW3       30.01F
CLINES CORNERS CLOUDY    39  25  57 NW12      30.00F WCI  32
BELEN          PTSUNNY   43  30  59 N6        30.03F
SOCORRO        FAIR      44  30  57 N17G23    30.02F

$$
NMZ524>526-539-540-032100-
SOUTHCENTRAL MOUNTAINS

CITY           SKY/WX    TMP DP  RH WIND       PRES   REMARKS
RUIDOSO        PTSUNNY   32  28  86 S8        30.01F WCI  25

$$
NMZ527>531-032100-
NORTHEAST HIGHLANDS/NORTHEAST PLAINS

CITY           SKY/WX    TMP DP  RH WIND       PRES   REMARKS
LAS VEGAS      FAIR      42  26  53 S16       29.96F
RATON          FAIR      34  23  64 S13       29.95F WCI  25
CLAYTON        CLOUDY    36  34  92 SW12      29.97F WCI  28

$$
NMZ532>537-032100-
EASTCENTRAL PLAINS

CITY           SKY/WX    TMP DP  RH WIND       PRES   REMARKS
TUCUMCARI      CLOUDY    37  33  85 CALM      30.02F
CANNON AFB     CLOUDY    36  36 100 E3        30.02F
CLOVIS AIRPORT CLOUDY    37  34  87 E3        30.02F

$$
NMZ028-029-538-032100-
SOUTHEAST PLAINS

CITY           SKY/WX    TMP DP  RH WIND       PRES   REMARKS
ROSWELL        CLOUDY    39  34  82 N7        30.03F WCI  34
ARTESIA        LGT RAIN  37  37 100 N12G18    30.05F WCI  30
CARLSBAD       CLOUDY    37  37 100 NW17      30.03F WCI  27
HOBBS          CLOUDY    39  39 100 N8        30.02F FOG     WCI  34


$$




USA.gov is the U.S. government's official web portal to all federal, state and local government web resources and services.